Regional Weather Roundup
Issued by NWS

Home | Current Version | Previous Version | Graphics & Text | Print | Product List | Glossary Off
Versions: 1 2 3 4 5 6 7 8 9 10 11 12 13 14 15 16 17 18 19 20 21 22 23 24 25 26 27 28 29 30 31 32 33 34 35 36 37 38 39 40 41 42 43 44 45 46 47 48 49 50

000
ASUS43 KDMX 292107
RWRIA

WEATHER ROUNDUP FOR IOWA
NATIONAL WEATHER SERVICE DES MOINES IA
400 PM CDT MON SEP 29 2014

NOTE: "FAIR" INDICATES FEW OR NO CLOUDS BELOW 12,000 FEET WITH NO
SIGNIFICANT WEATHER AND/OR OBSTRUCTIONS TO VISIBILITY.

* - THESE STATIONS ARE NOT NWS STATIONS...THUS NOT UNDER NWS
QUALITY CONTROL.  THEY ALSO DO NOT REPORT WEATHER SUCH
AS PRECIPITATION OR FOG.

IAZ001>003-012>014-020>022-031>034-043>046-292200-
   NORTHWEST IOWA

CITY           SKY/WX    TMP DP  RH WIND       PRES   REMARKS
CARROLL *      CLOUDY    75  63  64 NE8       30.00F
CHEROKEE *     SUNNY     72  63  73 NE9       30.02F
DENISON *      MOSUNNY   75  64  69 NE9       29.98F
LE MARS *      SUNNY     77  63  61 E6G12     30.00F
ORANGE CITY *  SUNNY     75  59  57 E6        30.02F
SHELDON *      SUNNY     70  59  68 E10       30.03F
SIOUX CITY     SUNNY     80  64  58 E10       29.97F HX  82
SPENCER        CLOUDY    65  57  75 NE13      30.05F
STORM LAKE *   SUNNY     72  61  68 NE12      30.04S
$$

IAZ055>058-069>071-079>083-090>094-292200-
   SOUTHWEST IOWA

CITY           SKY/WX    TMP DP  RH WIND       PRES   REMARKS
ATLANTIC *     SUNNY     82  57  42 CALM      29.97F HX  82
AUDUBON *      SUNNY     81  55  41 N7        30.00F HX  80
CLARINDA *     SUNNY     82  55  39 SE6       30.00F HX  82
COUNCIL BLFS * SUNNY     82  59  44 CALM      29.97F HX  82
CRESTON *      SUNNY     81  57  44 CALM      30.00F HX  81
HARLAN  *      MOSUNNY   84  59  42 W9        30.01F HX  84
LAMONI         SUNNY     80  57  45 S5        30.00F HX  80
RED OAK *      SUNNY     82  59  44 SE7       29.98F HX  82
SHENANDOAH *   MOSUNNY   84  57  39 CALM      29.98F HX  83
$$

IAZ047>049-059>061-072>074-084-292200-
   CENTRAL IOWA

CITY           SKY/WX    TMP DP  RH WIND       PRES   REMARKS
AMES           MOSUNNY   81  61  50 VRB5      29.98F HX  82
ANKENY *       PTSUNNY   79  61  53 CALM      29.98F HX  80
CHARITON *     SUNNY     81  59  47 VRB6      29.99F HX  81
DES MOINES     PTSUNNY   84  59  42 NW3       29.98F HX  84
GRINNELL*      PTSUNNY   82  57  42 W9        29.98F HX  82
KNOXVILLE *    MOSUNNY   81  59  47 W9        29.98S HX  81
MARSHALLTOWN   MOSUNNY   81  61  50 W8        29.97F HX  82
PELLA *        SUNNY     82  59  44 W7        29.99F HX  82
PERRY *          N/A     82  59  44 NW7       29.99S HX  82
$$

IAZ004>006-015-016-023>025-035-036-292200-
   NORTH CENTRAL IOWA

CITY           SKY/WX    TMP DP  RH WIND       PRES   REMARKS
ALGONA *       PTSUNNY   63  59  88 N10       30.05F
CLARION *      CLOUDY    68  61  77 N9        30.03F
ESTHERVILLE    CLOUDY    62  57  83 NE7       30.06S
FORT DODGE *   MOSUNNY   70  61  73 N8        30.03F
MASON CITY     CLOUDY    64  58  80 N8        30.06S
FOREST CITY *  CLOUDY    64  59  82 N8        30.04F
IOWA FALLS *     N/A     77  61  57 N12       30.01S
$$

IAZ007>011-017>019-026>030-037>042-050>054-066-292200-
   NORTHEAST IOWA

CITY           SKY/WX    TMP DP  RH WIND       PRES   REMARKS
CEDAR RAPIDS   MOSUNNY   81  59  47 SW13      29.96F HX  81
CHARLES CITY * CLOUDY    66  59  77 N12       30.03S
CLINTON *      SUNNY     81  55  41 W5        29.98F HX  80
DECORAH *      SUNNY     68  57  68 NE9G15    30.01S
MONTICELLO *   MOSUNNY   82  59  44 W9        29.95F HX  82
OELWEIN *      MOSUNNY   77  63  61 N14G21    29.98S
WATERLOO       MOSUNNY   82  60  47 NW10      29.95F HX  82
$$

IAZ064-065-067-068-078-292200-
   EAST CENTRAL IOWA

CITY           SKY/WX    TMP DP  RH WIND       PRES   REMARKS
IOWA CITY      MOSUNNY   82  58  43 SW6       29.97F HX  82
MT. PLEASANT * SUNNY     84  50  30 NW5       29.98S HX  82
MUSCATINE *    SUNNY     84  54  34 W10       29.96F HX  83
$$

IAZ062-063-075>077-085>089-095>099-292200-
   SOUTHEAST IOWA

CITY           SKY/WX    TMP DP  RH WIND       PRES   REMARKS
BURLINGTON     SUNNY     84  58  40 VRB3      29.97F HX  83
FAIRFIELD *    MOSUNNY   84  55  37 W9        29.98F HX  83
FORT MADISON * SUNNY     84  54  34 SW5       29.98F HX  83
KEOKUK *       SUNNY     82  59  44 W6        29.97F HX  82
OSKALOOSA *      N/A     82  57  42 W9        29.98F HX  82
CENTERVILLE *  SUNNY     82  57  42 W3        30.01F HX  82
OTTUMWA        SUNNY     82  58  43 SW7       29.98F HX  82
WASHINGTON *   SUNNY     82  57  42 W6        29.97F HX  82
$$

ABBREVIATIONS USED IN REMARKS
   TC - TEMPERATURES IN CELSIUS
  WCI - WIND CHILL INDEX
   HX - HEAT INDEX
  VSB - VISIBILITY
$$




USA.gov is the U.S. government's official web portal to all federal, state and local government web resources and services.